Location: Vihti�l�
(61.3833°N, 23.0667°E)
Time: 05:51:16
(UTC+00:00)

Cosmos 1666 Rocket - Pass Details

Date: 29 November 2020
Orbit: 604 x 632 km, 82.5° (Epoch: 22 January)

Event Time Altitude Azimuth Distance (km) Brightness Sun altitude
Rises 05:24:21 0° 193° (SSW) 2,856 7.1 -11.1°
Reaches altitude 10° 05:26:33 10° 193° (SSW) 1,958 6.3 -10.8°
Maximum altitude 05:30:53 90° 249° (WSW) 619 3.5 -10.4°
Drops below altitude 10° 05:35:17 10° 15° (NNE) 1,985 6.0 -9.9°
Sets 05:37:32 0° 15° (NNE) 2,899 6.9 -9.6°
